SCP
3 4 4 4 3 2 2 2 2 2 2 2 2 2 2 2 2 1 1 1 2 2 1 1 1 1 1 1 1 0 0 0 0 0 0 0 0 0 0 0 0 0 0
3 3 3 4 3 2 2 2 2 2 2 2 2 2 2 2 2 1 1 1 1 1 1 1 1 1 1 1 1 1 0 0 0 0 0 0 0 0 0 0 0 0 0
3 3 3 3 3 2 2 2 2 2 2 2 2 2 2 2 2 1 1 1 1 1 1 1 1 1 1 1 1 1 1 1 0 0 0 0 0 0 0 0 0 0 0
3 3 3 3 2 2 2 2 2 2 2 2 2 2 2 2 2 2 2 1 1 1 1 1 1 1 1 1 1 1 1 1 1 0 0 0 0 0 0 0 0 0 0
3 3 3 3 2 2 2 1 1 1 1 1 2 2 1 1 1 2 2 1 1 1 1 1 1 1 1 1 1 1 1 1 1 0 0 0 0 0 0 0 0 0 0
4 4 3 3 2 2 2 1 1 1 1 1 1 1 1 1 1 1 2 1 1 1 0 1 1 1 1 2 2 2 2 1 1 1 0 0 0 0 0 0 0 0 0
4 4 3 2 2 2 2 2 1 1 2 1 1 1 1 1 1 1 1 1 0 0 0 0 0 1 1 1 1 2 2 1 1 1 1 0 0 0 0 0 0 0 0
3 3 3 3 2 2 2 2 1 1 1 1 1 1 1 1 1 1 1 1 1 0 0 0 0 0 0 1 1 1 1 1 1 1 1 0 0 0 0 0 0 0 0
3 3 3 3 2 2 2 2 1 1 1 1 1 1 1 1 1 1 1 1 1 0 0 0 0 0 0 0 0 0 0 1 1 1 0 0 0 0 0 0 0 0 0
3 3 3 2 2 2 2 2 2 2 1 1 1 1 1 1 1 1 1 1 1 0 0 0 0 0 0 0 0 0 0 0 0 0 0 0 0 0 0 0 0 0 0
3 3 3 2 1 2 2 2 2 2 1 1 1 1 1 1 1 1 1 0 0 0 0 0 0 0 0 0 0 0 0 0 0 0 0 0 0 0 0 0 0 0 0
3 3 3 2 1 2 2 2 1 1 1 1 1 1 1 1 1 1 1 0 0 0 0 0 0 0 0 0 0 0 0 0 0 0 0 0 0 0 0 0 0 0 0
3 3 3 2 1 2 1 1 1 1 1 1 1 1 1 1 1 1 1 1 1 0 0 0 0 0 0 0 0 0 0 0 0 0 0 0 0 0 0 0 0 0 0
3 2 2 2 1 1 1 1 1 1 1 1 1 1 1 1 1 1 1 1 1 0 0 0 0 0 0 0 0 0 0 0 0 0 0 0 0 0 0 0 0 0 0
2 2 2 1 1 1 1 1 1 1 1 1 0 0 0 0 0 0 1 1 1 1 0 0 0 0 0 0 0 0 0 0 0 0 0 1 0 0 0 0 0 0 0
2 2 1 1 1 1 1 1 1 0 0 0 0 0 0 0 0 0 0 1 1 1 1 1 0 0 0 0 0 0 0 0 0 1 1 1 1 0 0 0 0 0 0
2 1 1 1 1 1 1 1 1 0 0 0 0 0 0 0 0 0 0 1 1 1 1 1 1 0 0 0 0 0 0 0 0 0 1 1 1 1 1 0 0 0 0
2 1 1 1 1 1 1 1 1 0 0 0 0 1 1 0 0 0 0 0 1 1 1 1 1 1 0 0 0 0 0 0 0 0 0 1 1 1 1 1 1 1 0
1 1 1 1 1 1 1 1 1 1 0 0 1 1 1 1 1 1 1 1 1 1 1 1 0 0 0 0 0 0 0 0 0 0 0 0 0 0 0 1 1 1 1
1 1 1 1 1 1 1 1 1 1 1 1 1 1 1 1 1 1 1 1 1 0 0 0 0 0 0 0 0 0 0 0 0 0 0 0 0 0 0 0 1 1 1
1 1 2 2 2 1 2 2 2 1 1 1 1 1 1 1 1 1 1 1 0 0 0 0 0 0 0 0 0 0 0 0 0 0 0 0 0 0 0 0 0 0 0
2 2 3 3 2 2 2 2 2 1 1 1 1 1 1 1 1 1 1 1 0 0 0 0 0 0 0 0 0 0 0 0 0 0 0 0 0 0 0 0 0 0 0
2 2 3 3 2 2 2 2 1 1 1 1 1 0 1 1 1 1 1 1 1 0 0 0 0 0 0 0 0 0 0 0 0 0 0 0 0 0 0 0 0 0 0
2 3 3 3 2 1 1 1 0 0 1 1 0 0 0 0 1 1 1 1 1 1 0 0 0 0 0 0 0 0 0 0 0 0 0 0 0 0 0 0 0 0 0
3 3 3 2 1 1 0 0 0 0 0 0 0 0 0 0 1 1 1 1 1 1 1 0 0 0 0 0 0 0 0 0 0 0 0 0 0 0 0 0 0 0 0
4 3 3 2 1 1 0 0 0 0 0 0 0 0 0 1 1 1 1 1 1 1 0 0 0 0 0 0 0 0 0 0 0 0 0 0 0 0 0 0 0 0 0
Wind_Speed
4 5 6 7 8 7 8 9 9 8 7 5 5 4 4 4 3 4 5 6 6 6 5 4 4 4 4 4 4 2 2 1 1 1 1 1 1 2 3 3 3 4 5
5 6 6 7 8 9 9 9 9 9 9 6 5 3 3 3 3 3 4 5 6 6 6 5 5 4 3 4 4 3 2 1 2 2 1 1 2 2 2 2 3 4 4
8 7 7 7 7 8 9 9 9 9 9 7 4 3 2 1 2 3 3 4 6 6 5 6 5 5 5 4 5 5 5 3 2 2 3 3 3 2 2 1 2 3 3
6 6 7 7 7 7 7 7 8 8 7 8 7 7 6 5 5 4 4 4 5 5 6 6 6 6 5 5 5 5 4 4 3 2 1 2 3 2 1 1 1 1 2
6 7 7 7 6 6 6 6 7 7 7 7 8 7 5 4 2 2 4 4 3 4 5 5 5 5 5 5 5 5 5 4 4 3 2 2 1 2 2 1 1 1 1
6 6 5 4 4 5 5 6 6 6 6 7 7 7 6 5 4 4 4 4 3 3 4 5 5 5 5 5 5 5 6 4 4 3 3 3 3 3 3 3 2 1 1
6 6 6 6 5 6 6 6 7 6 6 7 7 7 6 6 6 5 5 4 3 3 5 5 4 4 5 5 5 5 5 5 5 5 4 3 3 3 3 3 2 1 0
6 5 6 6 6 6 6 6 6 6 6 6 6 5 5 4 4 4 4 4 4 4 4 5 4 4 5 5 4 4 4 4 5 5 4 3 3 3 3 4 4 2 0
5 5 4 5 5 5 5 6 6 5 5 6 5 5 5 4 4 4 4 3 3 3 4 4 4 4 4 4 5 4 4 4 4 4 4 3 3 3 3 3 4 4 3
5 5 4 4 4 4 4 4 5 5 4 4 4 3 4 4 4 3 4 4 3 3 3 4 4 3 3 3 4 3 4 4 4 3 3 3 2 2 2 3 3 3 3
7 6 5 4 4 4 4 5 4 5 4 4 3 3 3 3 3 3 3 3 3 3 4 4 4 4 3 3 4 4 4 4 3 3 3 3 3 2 2 2 2 2 3
5 5 5 5 5 5 5 5 4 5 4 4 4 3 3 3 3 2 2 2 2 2 3 3 3 3 3 3 4 4 3 4 3 3 3 3 2 2 2 2 3 3 3
6 6 5 5 5 5 5 5 4 4 4 4 4 4 3 3 3 2 2 2 2 2 3 3 3 3 3 3 3 4 3 3 3 3 3 3 3 3 2 3 3 3 4
6 6 5 4 5 5 5 5 4 4 4 5 5 4 3 3 2 2 2 2 2 3 3 3 3 3 3 3 4 4 4 4 3 3 3 3 3 3 4 4 4 5 6
7 7 6 5 5 5 5 5 4 4 4 5 4 3 3 3 3 3 3 2 3 3 2 3 3 3 3 3 5 5 5 5 5 4 4 4 6 6 5 5 5 6 6
8 7 7 7 6 6 6 5 5 5 5 5 4 4 4 4 4 4 4 4 4 3 3 3 4 3 3 6 8 7 5 5 5 5 5 6 7 10 11 12 11 9 8
8 7 7 7 6 6 6 6 5 5 5 5 5 5 4 4 4 4 4 4 4 4 5 4 5 5 5 8 9 10 7 6 5 5 5 5 7 9 9 13 15 14 13
8 7 6 6 5 5 5 6 6 6 5 5 5 4 5 5 4 5 5 4 4 5 4 5 5 6 6 9 10 11 8 7 6 6 6 7 6 7 10 11 11 10 9
7 6 5 5 6 6 6 7 6 5 5 5 4 4 5 5 5 5 5 4 5 5 5 5 5 6 6 9 10 9 7 7 7 7 7 8 8 11 13 12 12 11 9
5 6 6 6 6 5 6 7 6 5 4 4 4 4 4 5 5 5 5 5 5 6 6 6 5 6 6 7 9 9 6 7 7 6 7 9 9 10 11 10 11 11 7
7 7 7 6 5 5 6 6 5 4 3 4 5 5 4 5 5 5 5 6 6 7 7 7 6 6 6 7 8 8 6 7 7 6 5 5 11 11 11 10 9 10 9
8 7 7 6 5 5 6 6 4 3 4 5 5 5 4 4 5 6 6 6 7 7 7 6 6 5 5 6 8 9 9 8 8 7 6 7 12 13 12 10 11 13 10
7 6 7 6 5 4 5 6 4 4 5 5 5 5 5 4 5 6 6 6 5 5 5 5 5 4 4 6 10 11 12 12 8 8 12 12 14 13 11 13 12 9 7
6 5 6 6 4 3 3 4 4 4 5 5 5 5 5 5 5 4 4 4 5 5 5 5 5 5 4 4 5 6 8 11 10 9 12 14 13 10 10 9 7 5 5
5 5 5 5 4 3 3 3 4 5 6 6 5 5 5 6 6 5 4 3 3 3 5 5 5 6 5 4 7 7 6 6 7 8 6 6 6 6 5 5 5 5 5
6 5 5 5 5 4 4 3 3 5 6 6 5 5 5 5 5 6 6 11 8 10 9 8 7 5 8 11 11 11 11 11 11 8 6 6 5 5 5 5 4 4 4
Wind_Direction
173 161 172 174 170 173 175 180 180 175 165 165 172 178 197 191 192 190 192 188 187 186 182 188 177 176 183 188 175 153 153 150 133 102 25 346 299 237 232 227 220 221 222
162 162 169 172 178 182 181 179 181 177 176 178 173 176 174 181 192 194 194 192 187 186 190 184 183 182 181 182 179 165 155 161 156 145 121 349 334 310 247 222 220 226 220
180 173 172 177 179 186 188 186 184 182 179 170 151 138 120 112 164 197 200 199 191 189 187 186 184 183 184 191 192 180 172 176 178 167 153 161 226 297 316 261 236 225 219
174 169 172 175 181 189 183 178 176 179 175 168 171 172 181 191 198 194 198 197 195 195 187 184 185 186 187 190 196 188 182 166 178 182 185 172 161 165 295 325 305 239 228
175 172 171 176 178 176 171 171 167 172 173 175 179 180 190 194 176 174 189 198 197 198 189 185 188 189 190 195 196 186 186 180 179 177 171 163 143 153 168 252 315 360 312
165 163 160 157 164 169 162 160 164 173 173 175 181 185 188 183 178 189 194 196 194 196 194 189 192 196 195 195 198 196 190 191 185 183 181 174 172 183 177 195 222 241 334
158 157 159 168 175 175 171 168 171 178 176 177 186 193 194 191 195 196 196 194 194 197 201 195 195 199 198 198 193 191 195 193 191 193 199 199 200 167 165 168 180 191 262
160 167 171 174 177 177 173 175 179 178 176 181 189 193 195 194 199 196 195 200 203 201 193 193 197 200 195 197 190 191 200 196 199 204 199 200 205 186 176 169 159 158 155
159 158 160 166 169 173 179 176 174 174 177 185 185 187 188 190 192 191 194 202 205 198 190 189 192 196 193 193 186 190 198 191 198 204 203 204 208 198 196 178 170 163 176
150 147 151 156 158 157 152 143 150 161 159 162 172 177 177 180 180 179 187 194 195 190 180 183 185 189 194 195 190 187 190 188 201 198 194 205 209 199 194 189 184 173 162
161 155 149 144 140 131 132 138 140 139 140 148 155 153 156 164 168 177 191 192 186 178 179 183 180 183 189 186 184 192 183 184 192 192 191 208 195 183 188 176 160 153 139
148 142 139 141 141 140 142 143 140 134 139 141 134 132 133 137 143 152 165 159 162 168 173 170 168 176 176 174 176 184 176 171 180 187 178 195 185 171 165 154 151 146 140
137 138 145 154 151 147 147 147 146 145 138 132 128 126 128 128 129 133 139 139 146 151 153 155 167 172 166 159 158 152 146 147 156 163 167 176 161 160 147 141 138 129 123
148 147 149 154 150 147 145 143 140 139 136 131 128 131 133 130 129 129 132 140 142 139 144 156 162 160 149 143 139 130 124 119 112 110 118 134 152 155 141 131 125 121 114
157 157 159 159 152 144 141 140 137 133 133 133 132 132 127 124 123 119 110 107 112 117 125 127 119 118 125 132 133 129 125 119 107 92 87 91 105 114 120 122 123 124 119
167 163 162 161 161 158 154 146 144 141 136 135 130 122 116 114 111 107 102 95 88 87 92 101 107 103 107 120 124 125 118 113 111 104 89 82 82 90 93 99 103 114 123
170 170 169 168 166 164 155 150 144 137 133 130 125 122 118 112 110 110 103 96 88 85 82 83 92 92 98 109 113 112 110 108 108 109 104 97 90 90 93 87 83 83 90
169 171 165 156 150 142 136 129 126 130 132 129 126 125 124 120 116 112 108 102 95 92 89 86 89 91 89 99 104 102 98 95 91 92 101 105 100 102 106 99 87 79 74
161 155 148 141 134 134 133 127 124 124 124 127 127 129 134 133 127 122 117 112 107 98 92 91 94 95 90 92 99 100 98 94 87 87 95 105 106 110 110 107 102 94 84
121 123 123 119 125 131 132 130 133 132 136 137 130 125 130 133 131 127 119 109 106 103 98 87 83 90 91 89 97 103 105 102 97 89 90 99 108 110 112 114 113 108 102
116 117 118 117 121 129 131 129 129 136 135 125 120 114 114 122 124 117 113 113 111 104 96 90 79 79 84 87 91 99 107 113 109 102 95 95 103 103 103 106 109 116 114
110 111 113 109 105 115 125 126 127 128 121 120 119 118 119 127 127 121 116 115 117 111 107 102 91 77 77 84 92 94 96 106 109 108 103 100 98 95 95 99 106 107 105
113 112 117 114 103 103 120 126 124 121 124 122 122 120 116 110 119 126 127 123 122 123 122 119 112 101 88 86 90 94 96 97 99 103 107 103 98 94 91 95 98 101 102
115 120 120 117 108 101 101 115 127 130 129 127 123 121 118 111 104 105 116 127 135 136 134 133 128 119 107 103 102 101 100 98 99 102 101 96 90 89 91 88 83 83 94
113 120 127 129 125 114 105 109 125 131 130 129 126 122 118 118 108 91 75 93 83 126 143 144 140 140 135 128 125 125 118 118 119 115 104 99 100 97 92 86 82 85 91
121 120 119 121 121 123 121 117 125 134 134 132 130 126 124 119 117 112 87 61 73 81 87 99 111 102 114 121 117 113 113 114 120 113 113 113 115 117 117 113 103 94 96